Wind_Speed
54 46 46 45 44 37 37 43 42 44 36 36 32 30 27 25 24 24 24 23 23 24 24 23 22 23 23 24 23 25 27 29
59 49 46 48 43 42 41 40 46 46 46 41 39 36 34 33 31 31 30 29 28 29 30 30 29 29 30 29 29 30 32 34
62 62 60 54 53 47 43 44 43 48 51 51 45 41 39 39 39 37 34 34 36 38 37 35 35 35 34 34 34 35 36 39
69 68 66 65 55 54 50 47 48 45 51 54 51 47 47 47 45 42 41 41 40 41 41 40 40 40 39 40 41 42 41 41
83 79 73 68 62 51 53 55 53 52 49 49 54 53 52 55 52 48 47 47 46 46 45 46 45 45 46 45 45 46 46 47
97 93 83 79 70 70 58 59 61 60 55 53 49 50 57 60 57 55 54 53 52 50 49 50 51 50 51 51 50 50 51 52
105 102 98 87 87 84 77 73 68 66 61 61 59 54 54 56 61 62 62 59 56 55 57 56 55 55 57 56 55 55 56 56
102 102 107 103 98 90 86 80 74 72 70 67 65 63 58 52 55 58 65 65 61 61 62 61 61 60 60 60 59 60 60 58
113 107 105 106 104 98 91 87 83 76 77 75 71 70 66 64 61 59 57 58 61 65 66 65 65 66 66 65 65 64 63 60
116 114 111 107 107 102 96 92 91 88 83 81 82 76 72 69 69 70 65 61 59 61 62 60 60 61 63 65 65 63 57 50
130 119 113 114 116 112 103 98 98 93 90 85 80 80 82 82 76 72 69 65 63 64 65 62 62 58 61 60 59 59 55 53
136 133 124 117 116 114 112 111 104 98 94 91 89 84 85 87 87 78 79 79 75 73 68 65 68 68 63 62 61 61 56 57
141 137 131 130 126 122 121 116 117 108 100 93 92 93 91 90 91 90 84 86 87 79 80 78 73 67 71 73 69 65 64 64
142 140 136 132 131 131 132 128 124 121 112 106 97 94 95 97 99 95 93 92 91 89 82 78 78 75 76 77 73 71 68 68
139 140 140 139 132 130 132 128 126 123 122 116 107 100 98 98 102 102 100 99 97 94 93 90 84 80 78 80 82 81 82 79
135 139 140 140 137 135 132 129 129 124 126 123 117 108 102 102 104 103 107 107 105 104 100 100 98 95 88 86 86 87 84 84
132 137 137 140 141 142 138 137 133 128 126 126 123 118 114 110 109 113 113 113 108 107 108 106 106 100 97 94 91 89 88 86
127 133 136 137 144 141 141 141 141 138 135 131 126 124 119 116 120 122 122 117 113 110 108 107 106 105 105 100 95 93 91 91
121 128 132 135 137 135 141 139 142 142 143 141 134 133 129 127 127 128 128 126 121 120 117 113 110 108 111 109 101 96 94 94
Wind_Direction
259 258 259 264 270 268 254 246 246 247 237 233 234 235 241 239 232 229 233 238 245 254 260 262 268 272 276 284 290 290 294 298
255 256 259 263 267 267 249 252 244 246 249 241 235 235 235 240 237 234 235 241 245 246 251 259 267 270 273 278 284 290 291 293
245 255 256 257 265 261 258 250 252 243 246 249 244 239 238 237 241 240 241 245 246 249 254 256 260 264 269 274 277 281 285 290
243 246 251 253 255 259 256 253 247 250 245 248 249 247 246 244 241 242 243 243 247 254 257 259 263 267 269 272 277 281 285 288
244 243 243 246 248 250 256 254 256 254 251 249 249 246 248 248 247 245 244 244 246 250 257 262 263 265 268 272 274 280 285 287
245 245 242 241 241 243 248 251 250 255 254 250 247 249 248 248 250 249 249 249 249 250 253 257 261 265 268 271 274 278 281 286
246 246 246 245 249 247 243 244 250 251 253 251 248 248 249 252 252 251 252 252 254 257 258 259 261 264 268 271 274 277 279 283
246 246 245 245 246 245 247 247 242 244 249 251 250 251 250 249 255 256 255 256 256 257 260 263 266 266 268 271 274 276 279 282
242 242 243 245 245 245 244 246 241 242 248 252 251 253 251 255 254 256 257 257 258 258 259 261 263 266 269 271 274 276 278 282
240 240 243 244 244 244 244 241 242 244 244 248 252 255 255 256 254 254 254 255 256 258 259 260 261 266 269 270 272 274 276 275
241 240 239 243 247 247 243 243 245 245 244 241 244 249 253 255 252 250 252 251 253 257 258 261 263 266 269 269 270 271 267 267
241 242 239 239 242 244 250 250 246 243 243 242 241 241 247 250 255 253 251 250 251 251 252 255 260 264 264 268 272 270 268 270
237 239 240 240 241 242 245 248 253 248 245 243 243 241 243 243 248 252 253 252 251 253 249 251 253 256 261 265 268 267 266 267
237 239 240 242 243 244 246 247 250 253 251 249 245 244 242 242 248 252 255 258 256 255 257 254 254 260 262 261 264 269 270 271
237 240 241 242 242 243 245 246 247 250 252 252 248 247 245 245 247 250 252 255 256 257 259 259 260 262 263 264 266 268 266 266
238 238 239 239 242 243 244 247 249 248 251 251 253 248 245 245 246 248 247 248 252 254 254 255 257 259 261 264 266 266 267 267
236 239 239 240 240 241 242 244 243 244 246 248 250 250 251 247 246 245 246 247 248 249 251 253 256 257 260 262 264 265 265 267
236 237 239 240 240 241 243 244 245 245 244 242 242 244 243 246 248 248 246 248 250 252 252 253 254 256 259 263 264 265 265 265
239 239 239 240 242 243 244 244 244 244 245 244 241 241 241 241 244 246 249 250 250 250 251 253 253 254 255 258 261 263 263 265
Height
10843 10847 10847 10846 10851 10857 10859 10861 10864 10864 10868 10868 10871 10874 10875 10878 10878 10879 10881 10881 10882 10883 10883 10882 10882 10882 10881 10880 10879 10878 10877 10875
10831 10835 10838 10839 10839 10845 10850 10851 10853 10857 10857 10861 10863 10866 10868 10870 10872 10872 10874 10876 10876 10875 10875 10876 10876 10876 10875 10875 10874 10874 10872 10870
10822 10822 10827 10831 10830 10831 10837 10842 10843 10848 10848 10849 10856 10858 10860 10860 10861 10865 10868 10869 10868 10869 10869 10870 10870 10869 10868 10868 10868 10867 10866 10864
10802 10807 10810 10815 10822 10822 10823 10828 10832 10836 10838 10841 10845 10850 10850 10849 10850 10856 10859 10859 10860 10859 10860 10862 10862 10861 10861 10861 10860 10858 10859 10857
10778 10782 10789 10801 10813 10813 10814 10815 10819 10825 10827 10833 10835 10838 10840 10836 10840 10845 10846 10847 10849 10851 10851 10851 10852 10852 10851 10853 10853 10850 10849 10847
10751 10756 10769 10780 10792 10800 10803 10803 10804 10807 10817 10820 10824 10826 10827 10825 10830 10832 10834 10835 10837 10840 10841 10841 10841 10842 10841 10842 10843 10843 10841 10839
10736 10740 10744 10759 10771 10779 10784 10788 10792 10791 10799 10806 10810 10814 10813 10816 10817 10819 10820 10824 10826 10827 10827 10829 10831 10831 10829 10830 10831 10831 10830 10828
10710 10716 10722 10730 10745 10758 10763 10771 10779 10778 10779 10788 10795 10798 10801 10805 10804 10806 10808 10812 10815 10814 10812 10814 10816 10818 10818 10818 10819 10819 10818 10818
10674 10685 10693 10701 10714 10727 10740 10750 10760 10765 10767 10772 10777 10782 10788 10791 10793 10795 10797 10799 10800 10800 10802 10802 10802 10802 10803 10805 10806 10805 10805 10806
10654 10663 10674 10679 10684 10698 10715 10726 10733 10742 10755 10758 10760 10764 10769 10774 10776 10778 10783 10785 10787 10785 10786 10788 10789 10789 10789 10790 10793 10792 10793 10793
10624 10640 10656 10659 10656 10669 10689 10703 10711 10723 10731 10740 10746 10747 10749 10751 10757 10764 10768 10769 10769 10770 10771 10773 10774 10776 10776 10777 10780 10779 10780 10778
10596 10604 10627 10635 10636 10645 10656 10669 10685 10698 10707 10716 10725 10730 10731 10733 10734 10744 10748 10750 10752 10754 10756 10757 10759 10760 10761 10763 10765 10766 10768 10765
10562 10568 10589 10602 10612 10622 10628 10638 10646 10672 10684 10695 10702 10710 10713 10713 10712 10714 10720 10723 10727 10733 10738 10741 10744 10745 10745 10747 10750 10751 10755 10753
10538 10549 10565 10575 10587 10596 10603 10617 10626 10634 10656 10673 10682 10688 10693 10694 10695 10697 10699 10701 10706 10711 10716 10723 10726 10728 10729 10731 10732 10734 10738 10738
10517 10531 10545 10554 10564 10570 10575 10593 10610 10619 10625 10636 10654 10666 10672 10675 10677 10680 10680 10681 10687 10691 10694 10700 10705 10708 10712 10712 10712 10713 10716 10719
10489 10496 10508 10524 10535 10548 10555 10567 10581 10596 10601 10612 10621 10633 10643 10648 10651 10655 10657 10656 10660 10665 10670 10671 10678 10687 10693 10692 10692 10692 10694 10697
10461 10465 10482 10493 10503 10511 10521 10530 10542 10558 10575 10584 10591 10600 10608 10616 10622 10624 10624 10627 10634 10643 10647 10651 10655 10664 10671 10673 10673 10675 10675 10678
10432 10439 10448 10460 10462 10481 10491 10501 10512 10521 10531 10543 10552 10562 10572 10576 10577 10582 10589 10597 10608 10616 10624 10630 10639 10644 10645 10648 10652 10654 10656 10659
10401 10408 10419 10430 10437 10453 10458 10471 10477 10484 10490 10503 10516 10527 10538 10543 10545 10550 10553 10563 10576 10585 10592 10598 10610 10618 10618 10622 10628 10632 10635 10640